Year,Month,Day,Hour,Minute,Value (Times are PST for temperature in C)
2015,09,26,00,00,7.60
2015,09,26,00,01,7.60
2015,09,26,00,02,7.60
2015,09,26,00,03,7.60
2015,09,26,00,04,7.60
2015,09,26,00,05,7.60
2015,09,26,00,06,7.60
2015,09,26,00,07,7.60
2015,09,26,00,08,7.60
2015,09,26,00,09,7.60
2015,09,26,00,10,7.60
2015,09,26,00,11,7.60
2015,09,26,00,12,7.60
2015,09,26,00,13,7.60
2015,09,26,00,14,7.60
2015,09,26,00,15,7.60
2015,09,26,00,16,7.60
2015,09,26,00,17,7.60
2015,09,26,00,18,7.70
2015,09,26,00,19,7.70
2015,09,26,00,20,7.70
2015,09,26,00,21,7.70
2015,09,26,00,22,7.70
2015,09,26,00,23,7.70
2015,09,26,00,24,7.70
2015,09,26,00,25,7.70
2015,09,26,00,26,7.70
2015,09,26,00,27,7.70
2015,09,26,00,28,7.70
2015,09,26,00,29,7.70
2015,09,26,00,30,7.60
2015,09,26,00,31,7.60
2015,09,26,00,32,7.60
2015,09,26,00,33,7.60
2015,09,26,00,34,7.60
2015,09,26,00,35,7.60
2015,09,26,00,36,7.60
2015,09,26,00,37,7.60
2015,09,26,00,38,7.60
2015,09,26,00,39,7.60
2015,09,26,00,40,7.70
2015,09,26,00,41,7.70
2015,09,26,00,42,7.70
2015,09,26,00,43,7.70
2015,09,26,00,44,7.70
2015,09,26,00,45,7.70
2015,09,26,00,46,7.70
2015,09,26,00,47,7.70
2015,09,26,00,48,7.70
2015,09,26,00,49,7.70
2015,09,26,00,50,7.70
2015,09,26,00,51,7.70
2015,09,26,00,52,7.60
2015,09,26,00,53,7.60
2015,09,26,00,54,7.60
2015,09,26,00,55,7.60
2015,09,26,00,56,7.60
2015,09,26,00,57,7.60
2015,09,26,00,58,7.60
2015,09,26,00,59,7.60
2015,09,26,01,00,7.60
2015,09,26,01,01,7.60
2015,09,26,01,02,7.60
2015,09,26,01,03,7.60
2015,09,26,01,04,7.60
2015,09,26,01,05,7.60
2015,09,26,01,06,7.60
2015,09,26,01,07,7.60
2015,09,26,01,08,7.60
2015,09,26,01,09,7.60
2015,09,26,01,10,7.60
2015,09,26,01,11,7.50
2015,09,26,01,12,7.50
2015,09,26,01,13,7.50
2015,09,26,01,14,7.50
2015,09,26,01,15,7.50
2015,09,26,01,16,7.50
2015,09,26,01,17,7.50
2015,09,26,01,18,7.50
2015,09,26,01,19,7.50
2015,09,26,01,20,7.40
2015,09,26,01,21,7.40
2015,09,26,01,22,7.40
2015,09,26,01,23,7.40
2015,09,26,01,24,7.40
2015,09,26,01,25,7.40
2015,09,26,01,26,7.40
2015,09,26,01,27,7.40
2015,09,26,01,28,7.40
2015,09,26,01,29,7.40
2015,09,26,01,30,7.40
2015,09,26,01,31,7.40
2015,09,26,01,32,7.40
2015,09,26,01,33,7.30
2015,09,26,01,34,7.40
2015,09,26,01,35,7.40
2015,09,26,01,36,7.40
2015,09,26,01,37,7.30
2015,09,26,01,38,7.30
2015,09,26,01,39,7.30
2015,09,26,01,40,7.30
2015,09,26,01,41,7.30
2015,09,26,01,42,7.30
2015,09,26,01,43,7.30
2015,09,26,01,44,7.30
2015,09,26,01,45,7.30
2015,09,26,01,46,7.30
2015,09,26,01,47,7.30
2015,09,26,01,48,7.30
2015,09,26,01,49,7.30
2015,09,26,01,50,7.30
2015,09,26,01,51,7.30
2015,09,26,01,52,7.30
2015,09,26,01,53,7.30
2015,09,26,01,54,7.30
2015,09,26,01,55,7.30
2015,09,26,01,56,7.30
2015,09,26,01,57,7.30
2015,09,26,01,58,7.30
2015,09,26,01,59,7.30
2015,09,26,02,00,7.30
2015,09,26,02,01,7.30
2015,09,26,02,02,7.30
2015,09,26,02,03,7.30
2015,09,26,02,04,7.30
2015,09,26,02,05,7.30
2015,09,26,02,06,7.30
2015,09,26,02,07,7.30
2015,09,26,02,08,7.40
2015,09,26,02,09,7.40
2015,09,26,02,10,7.40
2015,09,26,02,11,7.40
2015,09,26,02,12,7.50
2015,09,26,02,13,7.50
2015,09,26,02,14,7.50
2015,09,26,02,15,7.50
2015,09,26,02,16,7.50
2015,09,26,02,17,7.50
2015,09,26,02,18,7.50
2015,09,26,02,19,7.60
2015,09,26,02,20,7.60
2015,09,26,02,21,7.70
2015,09,26,02,22,7.80
2015,09,26,02,23,7.80
2015,09,26,02,24,7.80
2015,09,26,02,25,7.90
2015,09,26,02,26,7.90
2015,09,26,02,27,7.90
2015,09,26,02,28,7.80
2015,09,26,02,29,7.80
2015,09,26,02,30,7.80
2015,09,26,02,31,7.80
2015,09,26,02,32,7.80
2015,09,26,02,33,7.80
2015,09,26,02,34,7.70
2015,09,26,02,35,7.70
2015,09,26,02,36,7.70
2015,09,26,02,37,7.70
2015,09,26,02,38,7.60
2015,09,26,02,39,7.60
2015,09,26,02,40,7.60
2015,09,26,02,41,7.60
2015,09,26,02,42,7.60
2015,09,26,02,43,7.50
2015,09,26,02,44,7.50
2015,09,26,02,45,7.50
2015,09,26,02,46,7.50
2015,09,26,02,47,7.50
2015,09,26,02,48,7.50
2015,09,26,02,49,7.50
2015,09,26,02,50,7.50
2015,09,26,02,51,7.50
2015,09,26,02,52,7.60
2015,09,26,02,53,7.70
2015,09,26,02,54,7.70
2015,09,26,02,55,7.80
2015,09,26,02,56,7.80
2015,09,26,02,57,7.80
2015,09,26,02,58,7.80
2015,09,26,02,59,7.80
2015,09,26,03,00,7.80
2015,09,26,03,01,7.70
2015,09,26,03,02,7.70
2015,09,26,03,03,7.70
2015,09,26,03,04,7.70
2015,09,26,03,05,7.70
2015,09,26,03,06,7.80
2015,09,26,03,07,7.80
2015,09,26,03,08,7.80
2015,09,26,03,09,8.00
2015,09,26,03,10,8.00
2015,09,26,03,11,8.10
2015,09,26,03,12,8.20
2015,09,26,03,13,8.30
2015,09,26,03,14,8.30
2015,09,26,03,15,8.40
2015,09,26,03,16,8.40
2015,09,26,03,17,8.50
2015,09,26,03,18,8.50
2015,09,26,03,19,8.60
2015,09,26,03,20,8.60
2015,09,26,03,21,8.50
2015,09,26,03,22,8.50
2015,09,26,03,23,8.50
2015,09,26,03,24,8.50
2015,09,26,03,25,8.50
2015,09,26,03,26,8.50
2015,09,26,03,27,8.50
2015,09,26,03,28,8.50
2015,09,26,03,29,8.50
2015,09,26,03,30,8.50
2015,09,26,03,31,8.50
2015,09,26,03,32,8.50
2015,09,26,03,33,8.40
2015,09,26,03,34,8.40
2015,09,26,03,35,8.30
2015,09,26,03,36,8.30
2015,09,26,03,37,8.20
2015,09,26,03,38,8.20
2015,09,26,03,39,8.20
2015,09,26,03,40,8.20
2015,09,26,03,41,8.20
2015,09,26,03,42,8.20
2015,09,26,03,43,8.20
2015,09,26,03,44,8.20
2015,09,26,03,45,8.20
2015,09,26,03,46,8.20
2015,09,26,03,47,8.10
2015,09,26,03,48,8.10
2015,09,26,03,49,8.10
2015,09,26,03,50,8.10
2015,09,26,03,51,8.10
2015,09,26,03,52,8.10
2015,09,26,03,53,8.10
2015,09,26,03,54,8.10
2015,09,26,03,55,8.20
2015,09,26,03,56,8.20
2015,09,26,03,57,8.30
2015,09,26,03,58,8.30
2015,09,26,03,59,8.30
2015,09,26,04,00,8.40
2015,09,26,04,01,8.40
2015,09,26,04,02,8.50
2015,09,26,04,03,8.60
2015,09,26,04,04,8.60
2015,09,26,04,05,8.60
2015,09,26,04,06,8.60
2015,09,26,04,07,8.60
2015,09,26,04,08,8.60
2015,09,26,04,09,8.60
2015,09,26,04,10,8.60
2015,09,26,04,11,8.60
2015,09,26,04,12,8.60
2015,09,26,04,13,8.50
2015,09,26,04,14,8.50
2015,09,26,04,15,8.50
2015,09,26,04,16,8.50
2015,09,26,04,17,8.60
2015,09,26,04,18,8.60
2015,09,26,04,19,8.60
2015,09,26,04,20,8.60
2015,09,26,04,21,8.60
2015,09,26,04,22,8.70
2015,09,26,04,23,8.70
2015,09,26,04,24,8.70
2015,09,26,04,25,8.70
2015,09,26,04,26,8.70
2015,09,26,04,27,8.70
2015,09,26,04,28,8.70
2015,09,26,04,29,8.70
2015,09,26,04,30,8.70
2015,09,26,04,31,8.70
2015,09,26,04,32,8.70
2015,09,26,04,33,8.70
2015,09,26,04,34,8.70
2015,09,26,04,35,8.70
2015,09,26,04,36,8.70
2015,09,26,04,37,8.80
2015,09,26,04,38,8.80
2015,09,26,04,39,8.80
2015,09,26,04,40,8.90
2015,09,26,04,41,8.90
2015,09,26,04,42,8.90
2015,09,26,04,43,9.00
2015,09,26,04,44,9.00
2015,09,26,04,45,9.00
2015,09,26,04,46,9.00
2015,09,26,04,47,9.00
2015,09,26,04,48,9.00
2015,09,26,04,49,9.10
2015,09,26,04,50,9.10
2015,09,26,04,51,9.10
2015,09,26,04,52,9.10
2015,09,26,04,53,9.20
2015,09,26,04,54,9.20
2015,09,26,04,55,9.20
2015,09,26,04,56,9.30
2015,09,26,04,57,9.30
2015,09,26,04,58,9.30
2015,09,26,04,59,9.40
2015,09,26,05,00,9.40
2015,09,26,05,01,9.40
2015,09,26,05,02,9.40
2015,09,26,05,03,9.50
2015,09,26,05,04,9.60
2015,09,26,05,05,9.60
2015,09,26,05,06,9.70
2015,09,26,05,07,9.70
2015,09,26,05,08,9.80
2015,09,26,05,09,9.80
2015,09,26,05,10,9.80
2015,09,26,05,11,9.90
2015,09,26,05,12,9.90
2015,09,26,05,13,10.00
2015,09,26,05,14,10.00
2015,09,26,05,15,10.10
2015,09,26,05,16,10.10
2015,09,26,05,17,10.10
2015,09,26,05,18,10.10
2015,09,26,05,19,10.20
2015,09,26,05,20,10.20
2015,09,26,05,21,10.20
2015,09,26,05,22,10.20
2015,09,26,05,23,10.30
2015,09,26,05,24,10.30
2015,09,26,05,25,10.30
2015,09,26,05,26,10.30
2015,09,26,05,27,10.30
2015,09,26,05,28,10.30
2015,09,26,05,29,10.30
2015,09,26,05,30,10.30
2015,09,26,05,31,10.30
2015,09,26,05,32,10.40
2015,09,26,05,33,10.50
2015,09,26,05,34,10.50
2015,09,26,05,35,10.50
2015,09,26,05,36,10.60
2015,09,26,05,37,10.60
2015,09,26,05,38,10.70
2015,09,26,05,39,10.70
2015,09,26,05,40,10.70
2015,09,26,05,41,10.70
2015,09,26,05,42,10.70
2015,09,26,05,43,10.70
2015,09,26,05,44,10.80
2015,09,26,05,45,10.80
2015,09,26,05,46,10.80
2015,09,26,05,47,10.80
2015,09,26,05,48,10.80
2015,09,26,05,49,10.80
2015,09,26,05,50,10.80
2015,09,26,05,51,10.80
2015,09,26,05,52,10.70
2015,09,26,05,53,10.70
2015,09,26,05,54,10.70
2015,09,26,05,55,10.70
2015,09,26,05,56,10.70
2015,09,26,05,57,10.70
2015,09,26,05,58,10.70
2015,09,26,05,59,10.70
2015,09,26,06,00,10.70
2015,09,26,06,01,10.70
2015,09,26,06,02,10.70
2015,09,26,06,03,10.70
2015,09,26,06,04,10.70
2015,09,26,06,05,10.70
2015,09,26,06,06,10.70
2015,09,26,06,07,10.70
2015,09,26,06,08,10.70
2015,09,26,06,09,10.70
2015,09,26,06,10,10.80
2015,09,26,06,11,10.80
2015,09,26,06,12,10.80
2015,09,26,06,13,10.80
2015,09,26,06,14,10.80
2015,09,26,06,15,10.80
2015,09,26,06,16,10.80
2015,09,26,06,17,10.80
2015,09,26,06,18,10.80
2015,09,26,06,19,10.80
2015,09,26,06,20,10.80
2015,09,26,06,21,10.80
2015,09,26,06,22,10.80
2015,09,26,06,23,10.80
2015,09,26,06,24,10.80
2015,09,26,06,25,10.70
2015,09,26,06,26,10.70
2015,09,26,06,27,10.70
2015,09,26,06,28,10.70
2015,09,26,06,29,10.70
2015,09,26,06,30,10.70
2015,09,26,06,31,10.80
2015,09,26,06,32,10.90
2015,09,26,06,33,11.00
2015,09,26,06,34,11.00
2015,09,26,06,35,11.10
2015,09,26,06,36,11.10
2015,09,26,06,37,11.10
2015,09,26,06,38,11.10
2015,09,26,06,39,11.20
2015,09,26,06,40,11.20
2015,09,26,06,41,11.20
2015,09,26,06,42,11.20
2015,09,26,06,43,11.20
2015,09,26,06,44,11.20
2015,09,26,06,45,11.20
2015,09,26,06,46,11.20
2015,09,26,06,47,11.20
2015,09,26,06,48,11.20
2015,09,26,06,49,11.30
2015,09,26,06,50,11.30
2015,09,26,06,51,11.30
2015,09,26,06,52,11.30
2015,09,26,06,53,11.30
2015,09,26,06,54,11.30
2015,09,26,06,55,11.40
2015,09,26,06,56,11.40
2015,09,26,06,57,11.40
2015,09,26,06,58,11.40
2015,09,26,06,59,11.40
2015,09,26,07,00,11.40
2015,09,26,07,01,11.40
2015,09,26,07,02,11.40
2015,09,26,07,03,11.40
2015,09,26,07,04,11.40
2015,09,26,07,05,11.40
2015,09,26,07,06,11.40
2015,09,26,07,07,11.40
2015,09,26,07,08,11.40
2015,09,26,07,09,11.40
2015,09,26,07,10,11.40
2015,09,26,07,11,11.40
2015,09,26,07,12,11.40
2015,09,26,07,13,11.40
2015,09,26,07,14,11.40
2015,09,26,07,15,11.40
2015,09,26,07,16,11.40
2015,09,26,07,17,11.40
2015,09,26,07,18,11.40
2015,09,26,07,19,11.40
2015,09,26,07,20,11.50
2015,09,26,07,21,11.50
2015,09,26,07,22,11.50
2015,09,26,07,23,11.50
2015,09,26,07,24,11.50
2015,09,26,07,25,11.50
2015,09,26,07,26,11.50
2015,09,26,07,27,11.60
2015,09,26,07,28,11.60
2015,09,26,07,29,11.60
2015,09,26,07,30,11.60
2015,09,26,07,31,11.60
2015,09,26,07,32,11.60
2015,09,26,07,33,11.60
2015,09,26,07,34,11.60
2015,09,26,07,35,11.60
2015,09,26,07,36,11.60
2015,09,26,07,37,11.60
2015,09,26,07,38,11.60
2015,09,26,07,39,11.60
2015,09,26,07,40,11.70
2015,09,26,07,41,11.70
2015,09,26,07,42,11.70
2015,09,26,07,43,11.70
2015,09,26,07,44,11.70
2015,09,26,07,45,11.60
2015,09,26,07,46,11.60
2015,09,26,07,47,11.60
2015,09,26,07,48,11.60
2015,09,26,07,49,11.70
2015,09,26,07,50,11.70
2015,09,26,07,51,11.70
2015,09,26,07,52,11.70
2015,09,26,07,53,11.70
2015,09,26,07,54,11.70
2015,09,26,07,55,11.70
2015,09,26,07,56,11.70
2015,09,26,07,57,11.70
2015,09,26,07,58,11.70
2015,09,26,07,59,11.70
2015,09,26,08,00,11.70
2015,09,26,08,01,11.70
2015,09,26,08,02,11.80
2015,09,26,08,03,11.80
2015,09,26,08,04,11.80
2015,09,26,08,05,11.80
2015,09,26,08,06,11.80
2015,09,26,08,07,11.80
2015,09,26,08,08,11.80
2015,09,26,08,09,11.80
2015,09,26,08,10,11.80
2015,09,26,08,11,11.80
2015,09,26,08,12,11.80
2015,09,26,08,13,11.80
2015,09,26,08,14,11.80
2015,09,26,08,15,11.80
2015,09,26,08,16,11.80
2015,09,26,08,17,11.80
2015,09,26,08,18,11.80
2015,09,26,08,19,11.80
2015,09,26,08,20,11.80
2015,09,26,08,21,11.80
2015,09,26,08,22,11.80
2015,09,26,08,23,11.80
2015,09,26,08,24,11.80
2015,09,26,08,25,11.80
2015,09,26,08,26,11.80
2015,09,26,08,27,11.80
2015,09,26,08,28,11.80
2015,09,26,08,29,11.80
2015,09,26,08,30,11.90
2015,09,26,08,31,11.90
2015,09,26,08,32,11.90
2015,09,26,08,33,11.90
2015,09,26,08,34,11.90
2015,09,26,08,35,11.90
2015,09,26,08,36,11.90
2015,09,26,08,37,11.90
2015,09,26,08,38,11.90
2015,09,26,08,39,11.90
2015,09,26,08,40,11.90
2015,09,26,08,41,11.90
2015,09,26,08,42,11.90
2015,09,26,08,43,12.00
2015,09,26,08,44,12.00
2015,09,26,08,45,12.00
2015,09,26,08,46,12.00
2015,09,26,08,47,12.00
2015,09,26,08,48,12.10
2015,09,26,08,49,12.10
2015,09,26,08,50,12.10
2015,09,26,08,51,12.10
2015,09,26,08,52,12.10
2015,09,26,08,53,12.10
2015,09,26,08,54,12.10
2015,09,26,08,55,12.10
2015,09,26,08,56,12.10
2015,09,26,08,57,12.10
2015,09,26,08,58,12.10
2015,09,26,08,59,12.10
2015,09,26,09,00,12.10
2015,09,26,09,01,12.10
2015,09,26,09,02,12.10
2015,09,26,09,03,12.10
2015,09,26,09,04,12.10
2015,09,26,09,05,12.10
2015,09,26,09,06,12.10
2015,09,26,09,07,12.10
2015,09,26,09,08,12.10
2015,09,26,09,09,12.10
2015,09,26,09,10,12.20
2015,09,26,09,11,12.10
2015,09,26,09,12,12.20
2015,09,26,09,13,12.20
2015,09,26,09,14,12.20
2015,09,26,09,15,12.20
2015,09,26,09,16,12.20
2015,09,26,09,17,12.20
2015,09,26,09,18,12.20
2015,09,26,09,19,12.20
2015,09,26,09,20,12.20
2015,09,26,09,21,12.20
2015,09,26,09,22,12.20
2015,09,26,09,23,12.20
2015,09,26,09,24,12.20
2015,09,26,09,25,12.20
2015,09,26,09,26,12.20
2015,09,26,09,27,12.20
2015,09,26,09,28,12.20
2015,09,26,09,29,12.20
2015,09,26,09,30,12.10
2015,09,26,09,31,12.10
2015,09,26,09,32,12.10
2015,09,26,09,33,12.10
2015,09,26,09,34,12.10
2015,09,26,09,35,12.10
2015,09,26,09,36,12.10
2015,09,26,09,37,12.10
2015,09,26,09,38,12.10
2015,09,26,09,39,12.10
2015,09,26,09,40,12.10
2015,09,26,09,41,12.10
2015,09,26,09,42,12.10
2015,09,26,09,43,12.00
2015,09,26,09,44,12.00
2015,09,26,09,45,12.00
2015,09,26,09,46,12.00
2015,09,26,09,47,12.00
2015,09,26,09,48,11.90
2015,09,26,09,49,11.90
2015,09,26,09,50,11.90
2015,09,26,09,51,11.90
2015,09,26,09,52,11.90
2015,09,26,09,53,12.00
2015,09,26,09,54,12.00
2015,09,26,09,55,12.00
2015,09,26,09,56,12.00
2015,09,26,09,57,12.10
2015,09,26,09,58,12.10
2015,09,26,09,59,12.20
2015,09,26,10,00,12.20
2015,09,26,10,01,12.30
2015,09,26,10,02,12.30
2015,09,26,10,03,12.40
2015,09,26,10,04,12.50
2015,09,26,10,05,12.50
2015,09,26,10,06,12.60
2015,09,26,10,07,12.60
2015,09,26,10,08,12.70
2015,09,26,10,09,12.70
2015,09,26,10,10,12.80
2015,09,26,10,11,12.80
2015,09,26,10,12,12.90
2015,09,26,10,13,12.90
2015,09,26,10,14,13.00
2015,09,26,10,15,13.00
2015,09,26,10,16,13.10
2015,09,26,10,17,13.10
2015,09,26,10,18,13.20
2015,09,26,10,19,13.20
2015,09,26,10,20,13.20
2015,09,26,10,21,13.20
2015,09,26,10,22,13.30
2015,09,26,10,23,13.30
2015,09,26,10,24,13.30
2015,09,26,10,25,13.30
2015,09,26,10,26,13.30
2015,09,26,10,27,13.30
2015,09,26,10,28,13.30
2015,09,26,10,29,13.30
2015,09,26,10,30,13.30
2015,09,26,10,31,13.40
2015,09,26,10,32,13.40
2015,09,26,10,33,13.40
2015,09,26,10,34,13.40
2015,09,26,10,35,13.40
2015,09,26,10,36,13.40
2015,09,26,10,37,13.50
2015,09,26,10,38,13.50
2015,09,26,10,39,13.60
2015,09,26,10,40,13.60
2015,09,26,10,41,13.60
2015,09,26,10,42,13.70
2015,09,26,10,43,13.70
2015,09,26,10,44,13.70
2015,09,26,10,45,13.70
2015,09,26,10,46,13.70
2015,09,26,10,47,13.70
2015,09,26,10,48,13.70
2015,09,26,10,49,13.70
2015,09,26,10,50,13.70
2015,09,26,10,51,13.70
2015,09,26,10,52,13.70
2015,09,26,10,53,13.70
2015,09,26,10,54,13.70
2015,09,26,10,55,13.60
2015,09,26,10,56,13.60
2015,09,26,10,57,13.60
2015,09,26,10,58,13.60
2015,09,26,10,59,13.60
2015,09,26,11,00,13.60
2015,09,26,11,01,13.70
2015,09,26,11,02,13.70
2015,09,26,11,03,13.70
2015,09,26,11,04,13.70
2015,09,26,11,05,13.60
2015,09,26,11,06,13.60
2015,09,26,11,07,13.60
2015,09,26,11,08,13.60
2015,09,26,11,09,13.60
2015,09,26,11,10,13.60
2015,09,26,11,11,13.60
2015,09,26,11,12,13.60
2015,09,26,11,13,13.60
2015,09,26,11,14,13.70
2015,09,26,11,15,13.70
2015,09,26,11,16,13.70
2015,09,26,11,17,13.70
2015,09,26,11,18,13.70
2015,09,26,11,19,13.70
2015,09,26,11,20,13.70
2015,09,26,11,21,13.70
2015,09,26,11,22,13.70
2015,09,26,11,23,13.70
2015,09,26,11,24,13.80
2015,09,26,11,25,13.80
2015,09,26,11,26,13.80
2015,09,26,11,27,13.80
2015,09,26,11,28,13.80
2015,09,26,11,29,13.80
2015,09,26,11,30,13.80
2015,09,26,11,31,13.80
2015,09,26,11,32,13.80
2015,09,26,11,33,13.80
2015,09,26,11,34,13.80
2015,09,26,11,35,13.80
2015,09,26,11,36,13.80
2015,09,26,11,37,13.80
2015,09,26,11,38,13.80
2015,09,26,11,39,13.90
2015,09,26,11,40,13.90
2015,09,26,11,41,13.90
2015,09,26,11,42,13.90
2015,09,26,11,43,13.90
2015,09,26,11,44,13.90
2015,09,26,11,45,13.90
2015,09,26,11,46,13.90
2015,09,26,11,47,13.90
2015,09,26,11,48,13.90
2015,09,26,11,49,13.90
2015,09,26,11,50,13.80
2015,09,26,11,51,13.80
2015,09,26,11,52,13.80
2015,09,26,11,53,13.80
2015,09,26,11,54,13.80
2015,09,26,11,55,13.90
2015,09,26,11,56,13.90
2015,09,26,11,57,14.00
2015,09,26,11,58,14.10
2015,09,26,11,59,14.10
2015,09,26,12,00,14.10
2015,09,26,12,01,14.10
2015,09,26,12,02,14.10
2015,09,26,12,03,14.10
2015,09,26,12,04,14.10
2015,09,26,12,05,14.10
2015,09,26,12,06,14.20
2015,09,26,12,07,14.20
2015,09,26,12,08,14.20
2015,09,26,12,09,14.20
2015,09,26,12,10,14.30
2015,09,26,12,11,14.30
2015,09,26,12,12,14.30
2015,09,26,12,13,14.40
2015,09,26,12,14,14.40
2015,09,26,12,15,14.50
2015,09,26,12,16,14.50
2015,09,26,12,17,14.60
2015,09,26,12,18,14.60
2015,09,26,12,19,14.60
2015,09,26,12,20,14.50
2015,09,26,12,21,14.40
2015,09,26,12,22,14.40
2015,09,26,12,23,14.50
2015,09,26,12,24,14.40
2015,09,26,12,25,14.40
2015,09,26,12,26,14.40
2015,09,26,12,27,14.40
2015,09,26,12,28,14.40
2015,09,26,12,29,14.40
2015,09,26,12,30,14.40
2015,09,26,12,31,14.40
2015,09,26,12,32,14.40
2015,09,26,12,33,14.40
2015,09,26,12,34,14.40
2015,09,26,12,35,14.40
2015,09,26,12,36,14.40
2015,09,26,12,37,14.40
2015,09,26,12,38,14.40
2015,09,26,12,39,14.40
2015,09,26,12,40,14.40
2015,09,26,12,41,14.40
2015,09,26,12,42,14.50
2015,09,26,12,43,14.50
2015,09,26,12,44,14.60
2015,09,26,12,45,14.60
2015,09,26,12,46,14.70
2015,09,26,12,47,14.70
2015,09,26,12,48,14.70
2015,09,26,12,49,14.70
2015,09,26,12,50,14.70
2015,09,26,12,51,14.70
2015,09,26,12,52,14.70
2015,09,26,12,53,14.70
2015,09,26,12,54,14.70
2015,09,26,12,55,14.70
2015,09,26,12,56,14.70
2015,09,26,12,57,14.70
2015,09,26,12,58,14.80
2015,09,26,12,59,14.80
2015,09,26,13,00,14.80
2015,09,26,13,01,14.90
2015,09,26,13,02,14.90
2015,09,26,13,03,14.90
2015,09,26,13,04,14.90
2015,09,26,13,05,14.80
2015,09,26,13,06,14.80
2015,09,26,13,07,14.80
2015,09,26,13,08,14.80
2015,09,26,13,09,14.80
2015,09,26,13,10,14.80
2015,09,26,13,11,14.80
2015,09,26,13,12,14.80
2015,09,26,13,13,14.70
2015,09,26,13,14,14.60
2015,09,26,13,15,14.60
2015,09,26,13,16,14.60
2015,09,26,13,17,14.60
2015,09,26,13,18,14.60
2015,09,26,13,19,14.60
2015,09,26,13,20,14.60
2015,09,26,13,21,14.60
2015,09,26,13,22,14.60
2015,09,26,13,23,14.50
2015,09,26,13,24,14.50
2015,09,26,13,25,14.60
2015,09,26,13,26,14.50
2015,09,26,13,27,14.50
2015,09,26,13,28,14.40
2015,09,26,13,29,14.50
2015,09,26,13,30,14.50
2015,09,26,13,31,14.60
2015,09,26,13,32,14.60
2015,09,26,13,33,14.70
2015,09,26,13,34,14.80
2015,09,26,13,35,14.80
2015,09,26,13,36,14.90
2015,09,26,13,37,14.90
2015,09,26,13,38,14.90
2015,09,26,13,39,14.80
2015,09,26,13,40,14.80
2015,09,26,13,41,14.80
2015,09,26,13,42,14.70
2015,09,26,13,43,14.70
2015,09,26,13,44,14.70
2015,09,26,13,45,14.70
2015,09,26,13,46,14.80
2015,09,26,13,47,14.80
2015,09,26,13,48,14.70
2015,09,26,13,49,14.70
2015,09,26,13,50,14.70
2015,09,26,13,51,14.70
2015,09,26,13,52,14.70
2015,09,26,13,53,14.70
2015,09,26,13,54,14.70
2015,09,26,13,55,14.70
2015,09,26,13,56,14.60
2015,09,26,13,57,14.60
2015,09,26,13,58,14.60
2015,09,26,13,59,14.70
2015,09,26,14,00,14.70
2015,09,26,14,01,14.70
2015,09,26,14,02,14.80
2015,09,26,14,03,14.70
2015,09,26,14,04,14.80
2015,09,26,14,05,14.80
2015,09,26,14,06,14.80
2015,09,26,14,07,14.90
2015,09,26,14,08,14.90
2015,09,26,14,09,15.00
2015,09,26,14,10,15.00
2015,09,26,14,11,15.10
2015,09,26,14,12,15.20
2015,09,26,14,13,15.20
2015,09,26,14,14,15.30
2015,09,26,14,15,15.40
2015,09,26,14,16,15.40
2015,09,26,14,17,15.40
2015,09,26,14,18,15.40
2015,09,26,14,19,15.40
2015,09,26,14,20,15.40
2015,09,26,14,21,15.40
2015,09,26,14,22,15.40
2015,09,26,14,23,15.40
2015,09,26,14,24,15.40
2015,09,26,14,25,15.40
2015,09,26,14,26,15.40
2015,09,26,14,27,15.50
2015,09,26,14,28,15.50
2015,09,26,14,29,15.50
2015,09,26,14,30,15.50
2015,09,26,14,31,15.50
2015,09,26,14,32,15.50
2015,09,26,14,33,15.50
2015,09,26,14,34,15.60
2015,09,26,14,35,15.60
2015,09,26,14,36,15.60
2015,09,26,14,37,15.60
2015,09,26,14,38,15.60
2015,09,26,14,39,15.60
2015,09,26,14,40,15.90
2015,09,26,14,41,15.90
2015,09,26,14,42,15.90
2015,09,26,14,43,15.90
2015,09,26,14,44,15.90
2015,09,26,14,45,15.90
2015,09,26,14,46,15.90
2015,09,26,14,47,15.90
2015,09,26,14,48,15.90
2015,09,26,14,49,15.80
2015,09,26,14,50,15.80
2015,09,26,14,51,15.80
2015,09,26,14,52,15.70
2015,09,26,14,53,15.70
2015,09,26,14,54,15.70
2015,09,26,14,55,15.70
2015,09,26,14,56,15.70
2015,09,26,14,57,15.70
2015,09,26,14,58,15.70
2015,09,26,14,59,15.70
2015,09,26,15,00,15.70
2015,09,26,15,01,15.80
2015,09,26,15,02,15.80
2015,09,26,15,03,15.90
2015,09,26,15,04,15.90
2015,09,26,15,05,15.90
2015,09,26,15,06,15.80
2015,09,26,15,07,15.70
2015,09,26,15,08,15.60
2015,09,26,15,09,15.50
2015,09,26,15,10,15.50
2015,09,26,15,11,15.50
2015,09,26,15,12,15.40
2015,09,26,15,13,15.40
2015,09,26,15,14,15.50
2015,09,26,15,15,15.50
2015,09,26,15,16,15.40
2015,09,26,15,17,15.40
2015,09,26,15,18,15.40
2015,09,26,15,19,15.50
2015,09,26,15,20,15.60
2015,09,26,15,21,15.60
2015,09,26,15,22,15.60
2015,09,26,15,23,15.60
2015,09,26,15,24,15.70
2015,09,26,15,25,15.70
2015,09,26,15,26,15.70
2015,09,26,15,27,15.70
2015,09,26,15,28,15.70
2015,09,26,15,29,15.80
2015,09,26,15,30,15.80
2015,09,26,15,31,15.90
2015,09,26,15,32,15.90
2015,09,26,15,33,15.90
2015,09,26,15,34,16.00
2015,09,26,15,35,16.00
2015,09,26,15,36,16.00
2015,09,26,15,37,16.00
2015,09,26,15,38,16.00
2015,09,26,15,39,15.90
2015,09,26,15,40,16.00
2015,09,26,15,41,16.00
2015,09,26,15,42,16.00
2015,09,26,15,43,16.00
2015,09,26,15,44,16.00
2015,09,26,15,45,16.10
2015,09,26,15,46,16.10
2015,09,26,15,47,16.10
2015,09,26,15,48,16.10
2015,09,26,15,49,16.10
2015,09,26,15,50,16.10
2015,09,26,15,51,16.10
2015,09,26,15,52,16.20
2015,09,26,15,53,16.20
2015,09,26,15,54,16.20
2015,09,26,15,55,16.20
2015,09,26,15,56,16.20
2015,09,26,15,57,16.20
2015,09,26,15,58,16.10
2015,09,26,15,59,16.10
2015,09,26,16,00,16.00
2015,09,26,16,01,15.90
2015,09,26,16,02,15.90
2015,09,26,16,03,15.80
2015,09,26,16,04,15.90
2015,09,26,16,05,15.90
2015,09,26,16,06,16.00
2015,09,26,16,07,16.00
2015,09,26,16,08,16.10
2015,09,26,16,09,16.10
2015,09,26,16,10,16.20
2015,09,26,16,11,16.20
2015,09,26,16,12,16.20
2015,09,26,16,13,16.20
2015,09,26,16,14,16.20
2015,09,26,16,15,16.30
2015,09,26,16,16,16.30
2015,09,26,16,17,16.30
2015,09,26,16,18,16.40
2015,09,26,16,19,16.40
2015,09,26,16,20,16.40
2015,09,26,16,21,16.40
2015,09,26,16,22,16.40
2015,09,26,16,23,16.30
2015,09,26,16,24,16.30
2015,09,26,16,25,16.20
2015,09,26,16,26,16.20
2015,09,26,16,27,16.20
2015,09,26,16,28,16.20
2015,09,26,16,29,16.20
2015,09,26,16,30,16.30
2015,09,26,16,31,16.20
2015,09,26,16,32,16.20
2015,09,26,16,33,16.20
2015,09,26,16,34,16.10
2015,09,26,16,35,16.10
2015,09,26,16,36,16.10
2015,09,26,16,37,16.00
2015,09,26,16,38,16.00
2015,09,26,16,39,16.00
2015,09,26,16,40,16.10
2015,09,26,16,41,16.10
2015,09,26,16,42,16.20
2015,09,26,16,43,16.20
2015,09,26,16,44,16.20
2015,09,26,16,45,16.30
2015,09,26,16,46,16.30
2015,09,26,16,47,16.30
2015,09,26,16,48,16.40
2015,09,26,16,49,16.30
2015,09,26,16,50,16.20
2015,09,26,16,51,16.20
2015,09,26,16,52,16.20
2015,09,26,16,53,16.20
2015,09,26,16,54,16.10
2015,09,26,16,55,16.10
2015,09,26,16,56,16.10
2015,09,26,16,57,16.10
2015,09,26,16,58,16.00
2015,09,26,16,59,15.90
2015,09,26,17,00,15.90
2015,09,26,17,01,15.90
2015,09,26,17,02,15.90
2015,09,26,17,03,15.90
2015,09,26,17,04,15.80
2015,09,26,17,05,15.80
2015,09,26,17,06,15.70
2015,09,26,17,07,15.70
2015,09,26,17,08,15.60
2015,09,26,17,09,15.60
2015,09,26,17,10,15.60
2015,09,26,17,11,15.60
2015,09,26,17,12,15.60
2015,09,26,17,13,15.60
2015,09,26,17,14,15.50
2015,09,26,17,15,15.50
2015,09,26,17,16,15.40
2015,09,26,17,17,15.40
2015,09,26,17,18,15.40
2015,09,26,17,19,15.30
2015,09,26,17,20,15.30
2015,09,26,17,21,15.30
2015,09,26,17,22,15.30
2015,09,26,17,23,15.30
2015,09,26,17,24,15.30
2015,09,26,17,25,15.30
2015,09,26,17,26,15.30
2015,09,26,17,27,15.30
2015,09,26,17,28,15.30
2015,09,26,17,29,15.30
2015,09,26,17,30,15.30
2015,09,26,17,31,15.30
2015,09,26,17,32,15.30
2015,09,26,17,33,15.30